Left ArrowRight Arrow

40.97296, -117.73568

Hourly Observations for May 28, 2024

Temp ( °F °C ) Dew Point ( °F °C ) Humidity (%) Winds ( mph kmh ) Pressure ( in mb ) Visibility ( mi km ) Precip ( " mm )
12:56 am 00:56 Clear 55 12.8 32 0 41 41 VRB 3 6 29.88 1012 10 16 0.00 0.00
1:56 am 01:56 Clear 50 10 32 0 50 50 Calm 29.90 1012 10 16 0.00 0.00
2:56 am 02:56 Clear 48 8.9 32 0 54 54 WSW 6 9 29.90 1012 10 16 0.00 0.00
3:56 am 03:56 Clear 45 7.2 33 0.6 63 63 SSW 3 6 29.90 1013 10 16 0.00 0.00
4:56 am 04:56 Clear 43 6.1 32 0 65 65 SE 6 9 29.91 1013 10 16 0.00 0.00
5:56 am 05:56 Sunny 46 7.8 33 0.6 60 60 SSE 9 15 29.91 1013 10 16 0.00 0.00
6:56 am 06:56 Sunny 53 11.7 34 1.1 48 48 Calm 29.92 1013 10 16 0.00 0.00
7:56 am 07:56 Sunny 65 18.3 38 3.3 37 37 Calm 29.91 1013 10 16 0.00 0.00
8:56 am 08:56 Sunny 72 22.2 34 1.1 25 25 Calm 29.91 1013 10 16 0.00 0.00
9:56 am 09:56 Sunny 79 26.1 34 1.1 20 20 WNW 10 17 29.88 1012 10 16 0.00 0.00
10:56 am 10:56 Sunny 82 27.8 31 -0.6 16 16 WSW 13 20 29.88 1012 10 16 0.00 0.00
11:56 am 11:56 Sunny 84 28.9 30 -1.1 14 14 SW 10 17 29.86 1011 10 16 0.00 0.00
12:56 pm 12:56 Sunny 86 30 30 -1.1 13 13 W 13 20 29.86 1011 10 16 0.00 0.00
1:56 pm 13:56 Sunny 87 30.6 30 -1.1 13 13 SW 15 24 29.84 1010 10 16 0.00 0.00
2:56 pm 14:56 Mostly Sunny 88 31.1 30 -1.1 12 12 W 14 22 29.83 1010 10 16 0.00 0.00
3:56 pm 15:56 Sunny with Light Rain 88 31.1 28 -2.2 12 12 WSW 22 35 29.81 1010 10 16 0.01 0.13
4:56 pm 16:56 Sunny 84 28.9 27 -2.8 12 12 WSW 17 28 29.81 1010 10 16 0.01 0.13
5:56 pm 17:56 Sunny 85 29.4 27 -2.8 12 12 WSW 17 28 29.80 1009 10 16 0.00 0.00
6:56 pm 18:56 Sunny 82 27.8 25 -3.9 12 12 W 18 30 29.80 1009 10 16 0.00 0.00
7:56 pm 19:56 Sunny 76 24.4 29 -1.7 18 18 W 13 20 29.80 1009 10 16 0.00 0.00
8:56 pm 20:56 Clear 67 19.4 35 1.7 31 31 W 9 15 29.83 1010 10 16 0.00 0.00
9:56 pm 21:56 Clear 68 20 37 2.8 32 32 W 15 24 29.85 1011 10 16 0.00 0.00
10:56 pm 22:56 Clear 66 18.9 34 1.1 30 30 Calm 29.88 1012 10 16 0.00 0.00
11:56 pm 23:56 Clear 62 16.7 31 -0.6 31 31 WNW 9 15 29.91 1013 10 16 0.00 0.00

Powered by Vaisala Xweather